Regional Weather Roundup
Issued by NWS

Home | Current Version | Previous Version | Graphics & Text | Print | Product List | Glossary On
Versions: 1 2 3 4 5 6 7 8 9 10 11 12 13 14 15 16 17 18 19 20 21 22 23 24 25 26 27 28 29 30 31 32 33 34 35 36 37 38 39 40 41 42 43 44 45 46 47 48 49 50
000
ASUS43 KMKX 022111
RWRWI

WISCONSIN REGIONAL WEATHER ROUNDUP
NATIONAL WEATHER SERVICE MILWAUKEE/SULLIVAN WI
400 PM CDT SUN AUG 02 2015

NOTE: "FAIR" INDICATES FEW OR NO CLOUDS BELOW 12,000 FEET WITH NO
SIGNIFICANT WEATHER AND/OR OBSTRUCTIONS TO VISIBILITY.

WIZ001-002-006>008-014>016-023>028-022200-
NORTHWEST WISCONSIN

CITY           SKY/WX    TMP DP  RH WIND       PRES   REMARKS
SUPERIOR ARPT  PTSUNNY   73  58  57 N13G24    29.66R
ASHLAND        MOSUNNY   78  60  53 NW9       29.64F
HAYWARD        MOSUNNY   77  55  46 NW8G16    29.67S
SIREN          MOSUNNY   79  56  44 NW14G23   29.70S HX  80
CUMBERLAND     LGT RAIN  72  59  64 NW14G22   29.70R
RICE LAKE      MOSUNNY   77  58  52 NW12G22   29.70R
CHETEK         SUNNY     80  60  50 NW8G20    29.67S HX  81
LADYSMITH      MOSUNNY   79  62  55 NW13G20   29.67S HX  80
EAU CLAIRE     PTSUNNY   82  65  56 NW18G24   29.65R HX  84
MENOMONIE      MOSUNNY   82  60  46 NW17G24   29.67R HX  83
NEW RICHMOND   PTSUNNY   80  61  51 NW16G24   29.70S HX  81
OSCEOLA        PTSUNNY   80  63  55 NW9G17    29.72S HX  81
$$

WIZ003>005-009-010-017-018-022200-
NORTH CENTRAL WISCONSIN

CITY           SKY/WX    TMP DP  RH WIND       PRES   REMARKS
MANITOWISH WTR CLOUDY    72  58  61 NW16G22   29.65R
ARBOR VITAE    PTSUNNY   75  61  61 NW13G18   29.64S
WOODRUFF       PTSUNNY   75  61  61 NW13G18   29.64S
RHINELANDER    LGT RAIN  72  64  76 NW9       29.63F
EAGLE RIVER    PTSUNNY   73  60  63 NW7       29.62S
LAND O LAKES   CLOUDY    73  57  57 NW6       29.63S
PHILLIPS       PTSUNNY   75  62  62 NW8       29.64F
TOMAHAWK       PTSUNNY   72  65  81 NW8       29.64S
MEDFORD        MOSUNNY   71  65  80 NW9G17    29.64F
MERRILL        NOT AVBL
$$

WIZ029-030-035-036-043>047-022200-
CENTRAL WISCONSIN

CITY           SKY/WX    TMP DP  RH WIND       PRES   REMARKS
WAUSAU         LGT RAIN  76  62  62 N12G26    29.59R
MOSINEE        PTSUNNY   81  66  61 NW15G26   29.59F HX  83
MARSHFIELD     MOSUNNY   82  66  58 NW18G33   29.61R HX  84
STEVENS POINT  CLOUDY    69  64  86 S5        29.60F
WAUPACA        LGT RAIN  89  62  40 W13G25    29.54R HX  89
WAUTOMA        MOSUNNY   91  61  36 W16G31    29.54S HX  91
WISC RAPIDS    PTSUNNY   81  66  60 N9        29.60R HX  83
CAMP DOUGLAS   SUNNY     89  67  48 W21G33    29.58R HX  92
$$

WIZ011>013-019>022-031-037>040-048>050-022200-
NORTHEAST WISCONSIN

CITY           SKY/WX    TMP DP  RH WIND       PRES   REMARKS
ANTIGO         PTSUNNY   69  62  76 NW13      29.60F
SHAWANO        CLOUDY    71  63  77 NE8       29.55R
OCONTO         CLOUDY    62  62 100 SE7       29.57R
STURGEON BAY   CLOUDY    61  55  82 NE8       29.57F
GREEN BAY      TSTM      65  63  93 NE23G29   29.55R FOG
MANITOWOC      MOSUNNY   91  66  43 MISG      29.48F HX  93
APPLETON       PTSUNNY   88  63  42 SW20G30   29.51S HX  88
CLINTONVILLE   LGT RAIN  77  68  73 N13       29.54R
OSHKOSH        SUNNY     88  66  48 SW13G24   29.50S HX  90
$$

WIZ032>034-041-042-053>061-022200-
SOUTHWEST WISCONSIN

CITY           SKY/WX    TMP DP  RH WIND       PRES   REMARKS
LA CROSSE      SUNNY     90  65  43 W18G32    29.62R HX  92
SPARTA         MOSUNNY   91  59  35 W22G30    29.61R HX  90
VIROQUA        MOSUNNY   88  65  47 W17G33    29.66S HX  90
BOSCOBEL       SUNNY     93  71  48 W16G26    29.63F HX 100
PRAIRIE DU CHI SUNNY     92  67  43 W21G30    29.65S HX  95
PLATTEVILLE    SUNNY     88  72  59 SW21G30   29.68F HX  95
$$

WIZ056-057-062-063-064-067-068-022200-
SOUTH CENTRAL WISCONSIN

CITY           SKY/WX    TMP DP  RH WIND       PRES   REMARKS
REEDSBURG      SUNNY     91  69  47 SW21G32   29.59F HX  96
BARABOO/DELLS  SUNNY     91  63  39 SW21G32   29.59F HX  92
LONE ROCK      SUNNY     92  68  45 W18G28    29.62F HX  96
MINERAL POINT  SUNNY     90  70  51 W17G28    29.68S HX  95
MADISON        MOSUNNY   89  68  49 SW17G26   29.60F HX  93
MIDDLETON      SUNNY     91  65  41 SW15G31   29.62F HX  93
WATERTOWN      SUNNY     88  70  55 SW21G32   29.58F HX  92
MONROE         SUNNY     88  70  55 SW24G37   29.68F HX  92
JANESVILLE     SUNNY     91  66  43 SW24G30   29.66F HX  94
$$

WIZ051-052-058>065-066-070>072-022200-
SOUTHEAST WISCONSIN

CITY           SKY/WX    TMP DP  RH WIND       PRES   REMARKS
MILWAUKEE      MOSUNNY   92  63  38 SW31G44   29.59F HX  93
WAUKESHA       SUNNY     88  64  45 SW22G31   29.61F HX  89
MILWAUKEE/TIMM SUNNY     91  61  35 SW23G36   29.58F HX  91
RACINE         SUNNY     91  66  43 SW31G47   29.62F HX  93
BURLINGTON     SUNNY     87  65  47 SW23G30   29.63F HX  89
KENOSHA        SUNNY     90  69  50 SW20G39   29.64F HX  94
FOND DU LAC    SUNNY     90  68  48 SW25G37   29.53F HX  94
SHEBOYGAN      SUNNY     90  68  48 SW29G39   29.52S HX  94
WEST BEND      SUNNY     88  63  42 SW25G36   29.55F HX  88
JUNEAU         SUNNY     87  69  54 SW30      29.59F HX  91
$$

LSZ147-162-022200-
LAKE SUPERIOR

STATION/POSITION TIME  TEMP    WIND        PRES    WAVE
                       AIR SEA DIR/SP/G            HT/PER
                 (UTC) (F)     (DEG/KT/KT) (MB)    (FT/S)
W MID LAKE BUOY  2050   59 56  260/ 12/ 14 1002.4F   1/ 3
DEVILS ISLAND    2100   66     250/ 12/ 14 1003.3F
PORT WING        2000   73     240/  9/ 13 1004.1F
SAXON HARBOR     2040   72                 1004.1R
$$

LMZ867-665-643>646-022200-
LAKE MICHIGAN

STATION/POSITION TIME  TEMP    WIND        PRES    WAVE
                       AIR SEA DIR/SP/G            HT/PER
                 (UTC) (F)     (DEG/KT/KT) (MB)    (FT/S)
CHAMBERS ISLAND  2000   65     100/  8/ 11 1001.4F
N MID LAKE BUOY  2050   67 69  110/ 12/ 14  999.0F   2/ 5
NORTHPORT PIER   2000   68      90/ 12     1000.7F
ALGOMA LAKESHORE 2012           30/ 16/ 24   N/A
KEWAUNEE LAKESHO 2000   68      40/ 11/ 22 1000.7R
SHEBOYGAN LAKESH 2100   88     220/ 26/ 30  999.1R
PORT WASHINGTON  2029   92     230/ 17/ 29 1001.0F
ATWATER BUOY     2100   83 52  210/ 23/ 29 1002.7F
MILWAUKEE LAKESH 2000   87     230/ 26/ 33   N/A
KENOSHA   LAKESH 2100   89     220/ 21/ 43 1003.0F
$$

TC  - TEMPERATURE IN CELSIUS
VSB - VISIBILITY IN STATUTE MILES
WCI - WIND CHILL INDEX
HX  - HEAT INDEX




USA.gov is the U.S. government's official web portal to all federal, state and local government web resources and services.